This is the latest recevied weather packets stored in our database for station/object K4CRS-13. If no packets are shown the sender has not sent any weather packets the latest 10 day(s).
| Time | Temp. | Humidity | Pressure | Rain* | Wind** | Luminosity | Snow |
|---|---|---|---|---|---|---|---|
| 1787782464 | 21.67° C | 99% | 1050.1 hPa | 0 mm | - | 90 W/m² | - |
| 1787782164 | 21.67° C | 99% | 1050.2 hPa | 0 mm | - | 89 W/m² | - |
| 1787781859 | 21.67° C | 99% | 1050.2 hPa | 0 mm | - | 87 W/m² | - |
| 1787781557 | 21.67° C | 99% | 1050.2 hPa | 0 mm | - | 81 W/m² | - |
| 1787781256 | 21.67° C | 99% | 1050.1 hPa | 0 mm | - | 71 W/m² | - |
| 1787780954 | 21.67° C | 99% | 1050.4 hPa | 0 mm | - | 64 W/m² | - |
| 1787780649 | 21.67° C | 98% | 1050.1 hPa | 0 mm | - | 60 W/m² | - |
| 1787780344 | 21.67° C | 99% | 1050.5 hPa | 0 mm | - | 61 W/m² | - |
| 1787780040 | 21.67° C | 98% | 1050.8 hPa | 0 mm | - | 65 W/m² | - |
| 1787779735 | 21.67° C | 98% | 1050.6 hPa | 0 mm | - | 72 W/m² | - |
| 1787779434 | 21.67° C | 98% | 1050.7 hPa | 0 mm | - | 77 W/m² | - |
| 1787779130 | 21.67° C | 98% | 1050.7 hPa | 0 mm | - | 115 W/m² | - |
| 1787778830 | 21.67° C | 98% | 1051 hPa | 0 mm | - | 148 W/m² | - |
| 1787778526 | 22.22° C | 98% | 1050.7 hPa | 0 mm | - | 161 W/m² | - |
| 1787778221 | 22.22° C | 98% | 1050.8 hPa | 0 mm | - | 176 W/m² | - |
| 1787777921 | 22.22° C | 98% | 1051.1 hPa | 0 mm | - | 194 W/m² | - |
| 1787777312 | 21.67° C | 98% | 1051.4 hPa | 0 mm | - | 226 W/m² | - |
| 1787777011 | 21.67° C | 98% | 1051.1 hPa | 0 mm | - | 270 W/m² | - |
| 1787776711 | 21.67° C | 98% | 1050.9 hPa | 0 mm | - | 221 W/m² | - |
| 1787776410 | 21.11° C | 98% | 1051 hPa | 0 mm | - | 173 W/m² | - |
| 1787776107 | 21.11° C | 98% | 1051.2 hPa | 0 mm | - | 126 W/m² | - |
| 1787775803 | 21.11° C | 97% | 1050.8 hPa | 1.78 mm | - | 95 W/m² | - |
| 1787775502 | 21.11° C | 97% | 1050.8 hPa | 1.78 mm | - | 77 W/m² | - |
| 1787775201 | 21.11° C | 97% | 1051.5 hPa | 10.67 mm | - | 70 W/m² | - |
| 1787774896 | 21.11° C | 96% | 1051.6 hPa | 19.81 mm | - | 52 W/m² | - |
* Rain latest hour (hover to see other rain measurements)
** Current wind speed in m/s (hover to see current wind gust speed)